Location: Hradec Kralove
(50.2170°N, 15.8330°E)
Time: 05:06:22
(UTC+01:00)

SR - All Passes

Search period start: 30 January 2023 00:00
Search period end: 09 February 2023 00:00
Orbit: 581 x 870 km, 66.7° (Epoch: 29 January)

Date Brightness Start Highest point End Pass type
(mag) Time Alt. Az. Time Alt. Az. Time Alt. Az.
30 Jan - 01:04:29 10° WNW 01:07:58 24° WSW 01:11:23 10° SSW night (unlit)
30 Jan - 13:59:11 10° SE 14:00:50 11° ESE 14:02:26 10° E daylight
30 Jan - 15:36:56 10° SSW 15:42:05 69° ESE 15:46:49 10° NE daylight
30 Jan - 17:20:12 10° W 17:24:26 27° NW 17:28:26 10° NNE visible
30 Jan - 19:06:29 10° NNW 19:07:59 11° NNW 19:09:27 10° N visible
30 Jan - 20:50:39 10° N 20:52:05 11° NNE 20:53:30 10° NNE visible
30 Jan - 22:31:44 10° NNW 22:35:35 28° NE 22:39:18 10° E night (unlit)
31 Jan - 00:13:35 10° NW 00:17:46 49° WSW 00:21:50 10° SSE night (unlit)
31 Jan - 14:47:00 10° S 14:51:45 37° ESE 14:56:09 10° NE daylight
31 Jan - 16:28:53 10° WSW 16:33:43 43° NW 16:38:11 10° NNE daylight
31 Jan - 18:14:15 10° NW 18:16:51 14° NNW 18:19:21 10° N visible
31 Jan - 21:41:32 10° NNW 21:44:43 19° NNE 21:47:48 10° ENE visible
31 Jan - 23:23:01 10° NW 23:27:23 83° NE 23:31:38 10° SE night (unlit)
01 Feb - 01:06:35 10° WNW 01:08:40 13° WSW 01:10:44 10° SW night (unlit)
01 Feb - 13:57:51 10° SSE 14:01:33 20° ESE 14:05:04 10° ENE daylight
01 Feb - 15:38:00 10° SW 15:43:07 74° NW 15:47:51 10° NE daylight
01 Feb - 17:22:18 10° WNW 17:25:50 20° NNW 17:29:13 10° NNE visible
01 Feb - 20:51:24 10° N 20:53:42 14° NNE 20:55:57 10° NE visible
01 Feb - 22:32:38 10° NNW 22:36:51 44° NE 22:40:54 10° ESE night (unlit)
02 Feb - 00:14:58 10° NW 00:18:36 27° WSW 00:22:10 10° S night (unlit)
02 Feb - 13:11:15 10° ESE 13:11:30 10° ESE 13:11:44 10° ESE daylight
02 Feb - 14:47:36 10° SSW 14:52:41 62° ESE 14:57:23 10° NE daylight
02 Feb - 16:30:40 10° W 16:34:59 29° NW 16:39:02 10° NNE daylight
02 Feb - 18:16:51 10° NW 18:18:27 12° NNW 18:20:02 10° N visible
02 Feb - 20:01:23 10° N 20:02:34 11° NNE 20:03:44 10° NNE visible
02 Feb - 21:42:22 10° NNW 21:46:07 26° NE 21:49:44 10° E visible
02 Feb - 23:24:08 10° NW 23:28:22 55° WSW 23:32:29 10° SSE night (unlit)
03 Feb - 13:57:46 10° S 14:02:22 33° ESE 14:06:39 10° NE daylight
03 Feb - 15:39:24 10° WSW 15:44:16 46° NW 15:48:46 10° NNE daylight
03 Feb - 17:24:38 10° WNW 17:27:21 15° NNW 17:29:57 10° NNE visible
03 Feb - 20:52:11 10° NNW 20:55:13 18° NNE 20:58:10 10° ENE visible
03 Feb - 22:33:37 10° NW 22:37:58 75° NE 22:42:11 10° SE night (unlit)
04 Feb - 00:16:52 10° WNW 00:19:19 15° WSW 00:21:44 10° SW night (unlit)
04 Feb - 13:08:47 10° SSE 13:12:11 18° ESE 13:15:26 10° ENE daylight
04 Feb - 14:48:36 10° SW 14:53:42 80° NW 14:58:25 10° NE daylight
04 Feb - 16:32:42 10° W 16:36:21 20° NNW 16:39:49 10° NNE daylight
04 Feb - 18:19:57 10° N 18:20:07 10° N 18:20:18 10° N visible
04 Feb - 20:02:04 10° N 20:04:10 13° NNE 20:06:15 10° NE visible
04 Feb - 21:43:15 10° NNW 21:47:23 40° NE 21:51:23 10° ESE visible
04 Feb - 23:25:28 10° NW 23:29:12 30° WSW 23:32:55 10° S night (unlit)
05 Feb - 13:58:16 10° SSW 14:03:17 56° ESE 14:07:55 10° NE daylight
05 Feb - 15:41:08 10° WSW 15:45:31 30° NW 15:49:37 10° NNE daylight
05 Feb - 17:27:12 10° NW 17:28:55 12° NNW 17:30:38 10° N visible
05 Feb - 19:12:07 10° N 19:13:01 11° N 19:13:56 10° NNE visible
05 Feb - 20:53:00 10° NNW 20:56:37 25° NE 21:00:09 10° E visible
05 Feb - 22:34:41 10° NW 22:38:57 61° WSW 22:43:07 10° SSE night (unlit)
06 Feb - 13:08:33 10° S 13:12:59 30° ESE 13:17:07 10° NE daylight
06 Feb - 14:49:57 10° WSW 14:54:49 50° NW 14:59:21 10° NNE daylight
06 Feb - 16:35:01 10° WNW 16:37:49 15° NNW 16:40:33 10° NNE daylight
06 Feb - 20:02:49 10° NNW 20:05:42 17° NNE 20:08:31 10° ENE visible
06 Feb - 21:44:11 10° NNW 21:48:31 68° NE 21:52:44 10° SE visible
06 Feb - 23:27:12 10° WNW 23:29:57 17° WSW 23:32:40 10° SSW night (unlit)
07 Feb - 12:19:45 10° SSE 12:22:49 16° ESE 12:25:46 10° ENE daylight
07 Feb - 13:59:11 10° SW 14:04:17 87° NW 14:08:58 10° NE daylight
07 Feb - 15:43:07 10° W 15:46:51 22° NNW 15:50:24 10° NNE daylight
07 Feb - 17:30:09 10° NNW 17:30:34 10° N 17:30:59 10° N visible
07 Feb - 19:12:44 10° N 19:14:39 12° NNE 19:16:31 10° NE visible
07 Feb - 20:53:51 10° NNW 20:57:54 37° NE 21:01:50 10° ESE visible
07 Feb - 22:35:57 10° NW 22:39:49 33° WSW 22:43:37 10° S night (unlit)
08 Feb - 13:08:57 10° SSW 13:13:52 51° ESE 13:18:25 10° NE daylight
08 Feb - 14:51:35 10° WSW 14:56:02 32° NW 15:00:12 10° NNE daylight
08 Feb - 16:37:31 10° NW 16:39:23 12° NNW 16:41:13 10° N daylight
08 Feb - 18:22:55 10° N 18:23:28 10° N 18:24:01 10° NNE visible
08 Feb - 20:03:37 10° NNW 20:07:07 23° NE 20:10:32 10° E visible
08 Feb - 21:45:14 10° NW 21:49:31 69° WSW 21:53:43 10° SSE visible
